Temperature
8 10 9 10 10 11 11 11 11 11 10 10 11 11 11 10 9 9 9 9 9 9 9 9 9 9 9 9 9 9 10 10 10 9 9 9 9 9 9 9 9 9 9 9
9 9 9 9 9 9 10 10 10 9 9 9 10 10 11 10 10 10 9 9 8 8 8 8 8 8 9 9 9 9 9 9 9 9 9 9 9 9 9 9 9 9 9 9
9 8 8 8 8 9 9 10 10 9 9 9 9 11 11 11 9 9 8 9 8 8 8 8 8 8 8 8 9 9 9 9 9 9 9 8 8 8 8 8 8 8 8 8
8 7 7 8 8 9 9 9 9 8 9 9 9 10 12 11 10 9 9 8 8 8 7 7 7 8 8 8 8 8 8 9 8 8 8 8 8 8 8 8 8 8 8 8
7 7 7 8 8 8 8 8 8 8 8 8 8 8 12 10 10 10 10 8 8 7 7 7 7 7 7 8 8 8 8 8 8 8 8 8 8 7 7 7 7 7 7 7
6 6 6 7 6 7 7 7 7 8 8 8 8 9 11 11 10 11 10 8 7 7 6 6 6 6 7 7 7 7 8 8 8 8 8 7 7 7 7 7 7 7 7 7
6 6 5 5 6 6 7 8 8 8 7 9 8 8 10 11 9 9 9 8 7 6 5 5 6 6 6 7 7 7 7 7 7 7 7 7 7 7 7 6 6 6 6 6
6 6 6 5 6 7 7 8 8 8 9 9 6 8 11 8 7 6 6 6 5 5 5 5 5 5 6 6 6 6 6 7 7 7 7 7 6 6 6 6 6 6 6 5
6 6 5 4 5 6 6 7 7 7 6 7 9 9 9 8 7 6 5 5 5 4 4 4 5 5 5 6 6 6 6 6 6 6 6 6 6 6 6 5 5 5 5 5
5 5 4 4 5 5 6 6 6 6 7 8 9 9 10 8 8 7 6 5 4 4 4 4 4 5 5 5 5 5 5 5 6 6 6 5 5 5 5 5 5 4 4 4
4 4 4 4 4 5 4 5 5 6 7 8 9 10 8 8 7 7 6 4 4 4 4 4 4 4 4 4 5 5 5 5 5 5 5 5 5 5 5 4 4 4 4 4
4 4 4 4 3 3 4 5 5 6 6 6 8 9 6 6 5 5 4 3 3 3 3 3 3 3 4 4 4 4 4 4 4 4 4 4 4 4 4 4 4 3 3 3
3 3 4 4 3 3 3 3 3 4 5 6 7 9 5 4 4 4 3 3 3 3 3 3 3 3 3 3 4 4 4 4 4 4 4 4 4 4 3 3 3 3 3 3
3 3 4 6 5 4 3 3 2 3 5 5 6 7 6 5 5 4 3 2 2 2 2 2 2 3 3 3 3 3 3 3 3 3 3 3 3 3 3 3 3 2 2 2
2 2 2 3 3 2 3 3 2 2 4 5 6 5 6 5 4 3 2 2 2 2 2 2 2 2 2 2 3 3 3 3 3 2 2 2 2 2 2 2 2 2 2 1
0 1 1 1 2 2 2 2 2 2 3 3 4 4 4 4 3 2 2 2 1 1 2 2 2 2 2 2 2 2 2 2 2 2 2 2 2 1 1 1 1 1 1 1
0 0 2 3 1 1 3 3 2 2 2 3 4 5 3 3 2 2 1 1 1 1 1 1 2 2 2 2 2 2 2 1 1 1 1 1 1 1 1 1 0 0 0 0
-1 0 1 2 1 3 5 2 2 2 2 2 2 2 2 2 1 1 1 1 1 1 1 1 1 1 1 1 1 1 1 1 1 1 1 1 0 0 0 0 -0 -0 -0 -0
-1 -0 1 1 3 4 4 1 1 1 2 2 1 1 1 0 0 1 1 1 1 1 1 1 1 1 1 1 1 1 1 0 0 0 0 0 -0 -0 -0 -0 -1 -1 -1 -1
-2 -1 0 1 2 3 4 1 -1 1 3 2 1 1 -0 -0 2 3 1 1 1 1 1 1 1 0 0 0 0 0 0 -0 -0 -0 -0 -0 -1 -1 -1 -1 -1 -1 -1 -1
-1 -1 -0 1 2 4 2 -1 -1 2 3 1 -0 -0 -1 0 1 0 0 0 0 0 0 0 0 0 0 -0 -0 -0 -0 -0 -1 -1 -1 -1 -1 -1 -2 -2 -2 -2 -2 -2
0 0 -0 0 1 3 -1 -1 1 2 0 -0 -1 -1 -1 -1 -1 -1 -0 -0 -0 -0 -0 -0 -0 -0 -1 -1 -1 -1 -1 -1 -1 -1 -2 -2 -2 -2 -2 -2 -2 -2 -3 -3
-1 0 1 1 2 -0 -2 -1 -1 -1 -1 -1 -1 -1 -1 -1 -1 -1 -1 -1 -1 -1 -1 -1 -1 -1 -1 -1 -2 -2 -2 -2 -2 -2 -2 -2 -2 -2 -3 -3 -3 -3 -3 -3
-2 -4 -2 -2 -1 -2 -2 -2 -1 -1 -1 -1 -1 -1 -1 -1 -1 -1 -1 -1 -1 -1 -1 -1 -1 -1 -2 -2 -2 -2 -2 -2 -3 -3 -3 -3 -3 -3 -3 -3 -3 -3 -3 -3
-2 -4 -3 -2 -2 -2 -2 -2 -1 -1 -1 -1 -1 -1 -1 -1 -2 -2 -2 -2 -2 -2 -2 -2 -2 -2 -2 -2 -3 -3 -3 -3 -3 -3 -3 -3 -3 -4 -4 -4 -4 -4 -4 -4
-3 -3 -2 -0 -1 -2 -1 -1 -1 -1 -1 -2 -2 -2 -2 -2 -2 -2 -2 -3 -3 -3 -3 -3 -3 -3 -3 -3 -3 -3 -3 -4 -4 -4 -4 -4 -4 -4 -4 -4 -4 -4 -4 -4
Wind_Speed
1 3 6 8 8 5 5 7 7 5 2 5 9 10 9 7 8 9 9 9 9 9 7 5 5 5 5 5 6 6 7 6 5 4 4 3 3 2 1 2 2 2 2 2
3 5 5 4 5 5 7 7 7 3 2 4 7 11 10 9 10 10 11 10 10 9 8 7 6 6 6 6 5 6 6 7 6 5 4 3 3 2 1 1 2 1 1 2
5 2 3 5 5 6 8 9 8 5 3 3 6 9 9 7 7 8 9 10 11 10 10 9 8 8 7 7 7 6 7 7 6 6 4 3 2 2 2 1 1 1 1 1
2 2 4 6 6 7 8 6 6 5 4 3 3 6 8 7 7 8 9 9 10 10 10 9 9 8 8 7 6 6 7 7 7 6 6 6 4 4 3 2 2 2 2 2
2 2 4 5 5 5 3 2 4 5 5 5 6 6 7 5 8 10 9 9 9 8 9 8 8 8 7 6 6 6 6 7 7 7 7 7 5 3 2 2 2 2 1 2
2 1 1 2 1 3 4 3 2 2 4 7 9 9 8 6 9 8 8 7 6 6 6 7 6 6 6 5 5 5 6 5 6 6 7 7 7 5 4 3 3 2 1 1
1 2 1 1 2 3 5 5 3 4 5 7 5 8 9 5 5 7 7 6 5 4 5 5 5 6 5 5 5 5 6 5 5 6 6 7 7 6 5 4 3 3 2 2
4 3 3 2 3 4 7 7 5 5 6 4 4 9 6 2 3 4 4 4 4 4 4 5 5 5 5 5 5 5 6 5 5 5 5 6 6 5 4 4 3 3 2 2
4 2 0 1 2 4 5 6 3 1 1 5 6 6 7 4 4 2 2 2 3 3 4 4 4 5 5 6 6 5 5 5 5 5 5 5 5 5 4 4 3 2 2 2
2 2 2 1 2 1 3 4 4 5 5 7 7 8 6 5 6 4 3 3 3 3 3 3 3 4 4 5 5 4 4 4 4 4 4 4 4 4 4 4 3 3 3 2
2 2 2 2 5 6 4 5 4 4 4 5 6 5 2 4 4 5 5 4 4 4 3 3 3 3 3 4 4 4 4 4 4 4 4 4 4 4 4 4 4 3 3 3
2 2 3 4 2 2 5 6 7 5 5 5 6 5 1 2 3 3 4 3 3 2 2 2 2 2 3 4 4 4 4 4 4 3 3 3 3 3 4 4 3 3 3 3
3 3 2 2 3 3 4 5 6 3 3 6 8 6 1 1 2 3 3 3 2 2 2 2 2 3 3 3 3 3 3 3 3 4 3 3 2 3 3 3 3 3 3 2
2 4 5 7 3 3 5 7 8 7 7 8 10 10 6 6 5 5 4 4 3 3 3 3 3 3 3 3 3 3 3 3 3 3 3 3 3 2 2 3 3 3 2 2
2 4 4 6 5 4 6 9 11 12 12 10 10 10 11 8 7 6 5 4 4 4 4 4 4 3 3 3 3 3 3 3 3 3 3 3 2 2 1 1 2 2 2 2
2 3 3 4 5 5 8 11 13 14 13 14 14 14 8 6 5 5 5 5 5 5 5 4 4 4 4 4 3 3 3 3 3 3 3 2 2 2 2 2 1 1 1 2
4 4 3 4 2 3 10 12 13 10 10 11 14 11 5 6 6 6 6 5 6 6 6 5 4 4 4 4 3 3 3 3 3 3 3 2 2 2 2 2 2 2 2 2
5 4 2 2 2 8 4 1 7 10 10 11 9 7 6 7 6 6 5 5 6 6 6 5 4 4 3 3 3 3 3 3 3 3 3 3 3 2 2 2 2 2 2 2
6 5 3 3 5 8 5 2 4 7 7 8 10 9 5 3 3 4 3 3 4 5 5 4 4 3 3 3 3 3 3 3 3 3 3 3 3 3 3 2 2 2 2 2
3 4 4 4 5 7 2 2 2 3 5 3 6 7 4 2 4 3 2 3 4 4 3 3 2 2 2 2 3 3 3 3 3 3 2 2 3 3 3 3 2 2 2 2
5 5 7 8 8 7 1 2 5 4 3 0 3 4 3 4 4 4 4 3 3 3 2 2 1 1 2 2 3 3 3 3 3 2 2 2 2 3 3 3 3 3 2 2
8 7 7 7 8 7 3 5 6 2 2 1 2 2 3 4 4 4 4 4 3 3 2 1 1 1 1 2 3 3 3 3 2 2 2 2 2 2 2 3 3 3 3 3
7 6 5 7 6 2 4 4 3 2 2 2 2 2 3 3 4 4 4 4 4 3 2 1 1 1 1 2 3 3 3 2 2 2 2 2 2 2 2 3 3 3 3 3
5 2 4 5 6 4 5 5 4 4 4 4 3 3 3 4 4 4 4 4 3 3 2 1 1 1 1 2 2 2 2 2 3 3 2 2 2 2 2 2 3 3 3 3
4 5 5 7 6 4 5 6 6 5 4 4 4 3 3 4 4 4 4 4 3 2 2 1 2 2 2 1 1 1 2 2 3 3 3 2 2 2 2 2 3 3 3 3
6 7 7 7 5 5 5 4 4 4 5 4 4 3 3 3 4 4 4 3 3 2 2 2 2 2 2 1 1 1 1 2 3 3 3 2 2 2 2 2 2 3 4 4
Wind_Direction
145 179 202 204 212 233 214 216 228 243 257 239 241 253 256 246 235 234 231 229 226 228 229 221 217 212 204 199 195 187 182 172 167 166 169 166 170 167 145 131 136 171 175 169
170 221 225 199 199 208 214 220 235 256 257 248 256 263 261 246 237 236 233 230 228 226 224 221 215 209 206 201 199 195 190 184 179 178 176 176 172 171 162 141 148 164 180 180
205 208 186 187 191 205 220 228 231 239 273 252 272 266 246 237 235 239 240 237 233 226 221 217 214 211 208 207 207 204 196 189 186 180 163 149 149 154 179 185 180 170 165 177
224 236 193 193 209 215 230 233 223 218 229 243 240 264 244 234 241 241 238 234 233 230 226 220 213 212 212 211 209 208 201 191 188 183 180 181 190 199 208 207 206 188 192 190
201 210 204 211 222 217 215 181 201 219 233 252 233 248 257 226 241 241 237 233 231 229 225 222 216 214 213 208 204 205 201 194 188 188 189 188 195 202 189 187 197 199 196 201
242 268 278 248 236 191 162 148 156 212 229 243 227 230 258 227 235 242 237 233 229 226 224 220 216 210 207 202 196 196 192 191 187 186 189 192 190 189 183 187 192 210 216 222
224 234 236 216 163 174 184 177 197 212 220 237 203 230 250 247 249 256 254 247 236 225 218 211 206 207 204 199 192 190 184 183 183 186 189 191 189 186 192 197 197 203 220 235
192 220 200 212 220 200 199 205 212 224 230 237 210 235 248 258 291 287 275 266 236 222 219 217 213 211 207 201 192 187 187 184 183 184 187 187 186 188 192 196 199 206 220 227
196 206 55 275 277 207 189 210 231 217 274 254 237 251 266 240 258 256 269 258 231 223 224 226 223 213 205 201 196 191 189 188 187 187 181 182 182 183 182 185 191 201 208 218
190 212 242 263 214 233 237 175 178 201 221 243 248 246 240 223 237 245 258 263 252 236 234 237 232 218 207 200 193 188 187 188 189 188 184 182 184 184 183 186 192 197 205 216
216 194 202 201 210 209 185 189 204 204 238 241 251 246 222 241 238 240 249 259 250 234 232 236 235 222 201 190 184 181 182 182 185 186 183 181 185 184 184 192 198 201 203 210
195 203 227 236 245 281 236 215 198 210 220 231 257 264 73 262 265 252 259 265 260 247 252 252 236 213 194 190 187 185 184 182 184 182 176 184 188 185 190 196 201 201 202 207
171 184 209 220 204 204 226 219 218 230 225 223 236 252 98 285 284 273 266 266 257 249 259 263 242 217 205 199 194 192 188 184 181 174 170 169 190 193 197 196 197 200 198 198
192 205 229 239 261 209 226 220 210 211 229 237 241 259 271 275 278 284 282 278 272 258 259 260 243 225 213 206 198 194 192 185 181 176 175 182 190 192 200 197 197 195 193 194
197 222 234 263 273 248 245 234 219 224 233 241 252 255 270 269 269 275 277 279 275 272 269 260 243 227 215 211 202 194 193 191 188 180 184 192 185 182 183 189 195 194 194 200
185 215 222 257 255 251 258 248 234 235 239 244 259 266 266 276 270 267 271 274 274 274 273 266 240 226 219 213 206 198 199 198 191 187 193 188 180 179 185 190 191 199 206 210
184 183 209 246 271 265 256 236 219 222 224 227 241 255 265 271 266 264 264 264 265 272 277 272 253 237 234 225 212 208 208 201 193 193 193 192 187 189 192 183 191 206 214 219
182 180 206 241 219 238 252 172 208 223 240 231 245 264 262 267 282 277 265 261 267 271 272 269 267 257 249 236 221 211 199 195 195 196 195 197 194 196 197 196 205 218 222 222
205 186 192 210 244 266 266 205 188 211 251 233 236 252 266 299 302 277 272 266 272 274 274 275 274 264 249 228 208 192 192 195 197 202 205 207 201 197 201 209 217 220 224 232
182 195 198 207 236 247 262 135 166 185 255 223 221 238 248 249 266 284 314 299 292 297 296 296 287 263 233 222 195 187 194 197 209 215 216 211 207 203 209 215 219 226 226 237
174 189 208 219 237 259 279 153 163 204 263 166 214 225 209 229 266 315 329 315 305 307 309 299 269 245 229 207 191 197 200 214 220 213 208 207 208 210 214 214 217 218 219 225
191 192 201 204 227 245 144 155 197 251 350 277 226 226 232 259 290 311 318 317 320 319 317 301 265 266 247 207 196 203 218 221 205 196 199 209 216 212 212 209 215 218 215 220
211 211 206 209 228 312 176 212 265 308 279 268 252 242 231 256 277 297 307 313 315 311 305 292 260 263 258 224 207 212 226 205 195 198 207 211 214 219 218 216 215 217 220 223
218 218 224 248 254 256 249 261 275 272 271 275 264 247 232 253 274 288 295 302 308 310 301 286 242 243 265 250 234 222 215 200 194 201 211 211 210 218 223 224 220 220 222 225
215 186 218 248 263 277 251 249 259 266 269 268 266 252 242 248 271 279 284 291 297 296 289 254 234 247 265 268 252 234 208 196 200 206 209 213 216 217 222 231 232 232 236 236
211 208 217 243 234 228 252 253 253 253 258 256 258 267 263 247 261 273 278 285 288 282 276 260 252 254 264 264 262 259 229 204 199 207 212 216 218 222 226 230 245 241 245 249
Height
1506 1506 1505 1504 1506 1505 1505 1505 1506 1508 1512 1512 1508 1506 1507 1509 1510 1510 1510 1511 1511 1512 1514 1515 1515 1516 1518 1519 1521 1522 1524 1526 1527 1528 1529 1530 1531 1532 1533 1534 1535 1536 1537 1537
1506 1504 1505 1507 1508 1508 1507 1507 1507 1510 1513 1511 1508 1505 1504 1505 1505 1506 1506 1507 1508 1509 1510 1511 1512 1513 1514 1516 1517 1519 1521 1522 1524 1526 1527 1528 1529 1530 1531 1531 1532 1533 1534 1534
1501 1505 1506 1507 1507 1507 1506 1505 1505 1508 1511 1511 1509 1499 1497 1498 1501 1502 1502 1503 1504 1504 1506 1507 1508 1509 1510 1512 1514 1515 1517 1519 1521 1523 1525 1526 1527 1527 1528 1528 1529 1530 1531 1531
1504 1506 1507 1506 1506 1505 1504 1507 1508 1510 1509 1506 1509 1499 1490 1493 1496 1497 1498 1498 1499 1500 1502 1503 1504 1505 1506 1508 1510 1512 1514 1515 1517 1519 1521 1522 1523 1524 1525 1526 1526 1527 1528 1528
1504 1506 1506 1505 1506 1506 1506 1509 1510 1510 1509 1510 1508 1506 1486 1491 1491 1491 1492 1493 1494 1496 1497 1498 1500 1501 1503 1505 1506 1508 1510 1512 1514 1516 1517 1519 1520 1521 1522 1523 1523 1523 1524 1525
1506 1508 1508 1507 1508 1508 1509 1511 1511 1511 1509 1509 1502 1500 1482 1483 1484 1484 1488 1490 1491 1492 1494 1495 1497 1498 1500 1501 1503 1504 1506 1508 1509 1511 1513 1515 1517 1518 1519 1520 1520 1521 1521 1521
1505 1507 1509 1509 1507 1509 1508 1507 1507 1507 1506 1497 1502 1498 1482 1479 1483 1484 1485 1487 1488 1490 1491 1491 1493 1494 1496 1497 1499 1501 1502 1504 1506 1508 1510 1512 1513 1514 1516 1516 1517 1518 1518 1518
1501 1502 1506 1507 1506 1504 1505 1502 1501 1498 1494 1490 1504 1493 1478 1483 1485 1485 1486 1486 1486 1487 1488 1489 1490 1491 1492 1494 1495 1497 1498 1500 1502 1504 1506 1508 1509 1510 1511 1512 1513 1514 1514 1515
1498 1501 1507 1508 1507 1505 1504 1503 1503 1504 1507 1499 1486 1483 1480 1482 1483 1484 1484 1484 1484 1485 1485 1486 1487 1488 1489 1490 1492 1493 1495 1497 1499 1501 1502 1504 1505 1506 1507 1509 1510 1510 1511 1511
1501 1505 1506 1508 1507 1507 1505 1503 1505 1503 1497 1488 1480 1478 1472 1476 1478 1480 1482 1482 1483 1483 1483 1484 1484 1485 1486 1488 1489 1491 1492 1494 1495 1497 1498 1500 1502 1503 1504 1505 1506 1507 1507 1507
1503 1504 1506 1506 1505 1502 1506 1506 1502 1499 1496 1487 1479 1471 1474 1475 1477 1479 1480 1481 1481 1481 1482 1482 1482 1483 1483 1485 1486 1488 1489 1491 1492 1494 1495 1496 1498 1499 1500 1501 1502 1503 1503 1504
1503 1502 1502 1503 1505 1506 1503 1500 1500 1497 1497 1494 1483 1475 1478 1479 1479 1480 1480 1480 1480 1480 1481 1480 1480 1480 1481 1482 1483 1485 1486 1487 1489 1490 1491 1493 1494 1495 1496 1497 1498 1499 1499 1499
1502 1503 1500 1498 1505 1506 1504 1501 1501 1501 1496 1491 1484 1475 1479 1480 1479 1480 1480 1479 1479 1479 1479 1478 1478 1478 1479 1480 1481 1482 1483 1484 1486 1487 1488 1489 1490 1492 1493 1494 1494 1495 1495 1495
1500 1500 1496 1488 1487 1494 1498 1499 1500 1499 1492 1486 1481 1474 1476 1477 1478 1478 1478 1478 1478 1478 1477 1477 1476 1476 1477 1478 1479 1479 1480 1481 1482 1484 1485 1486 1487 1487 1489 1490 1490 1491 1491 1491
1499 1497 1498 1495 1495 1496 1494 1493 1495 1495 1488 1484 1476 1478 1473 1475 1477 1477 1477 1476 1476 1476 1475 1474 1474 1474 1475 1475 1476 1477 1478 1479 1480 1481 1482 1483 1483 1484 1485 1486 1486 1486 1487 1488
1499 1498 1498 1496 1495 1496 1494 1490 1490 1490 1487 1484 1482 1478 1474 1475 1475 1475 1475 1474 1473 1473 1472 1472 1472 1472 1472 1473 1473 1474 1475 1476 1477 1478 1479 1480 1481 1482 1482 1482 1482 1483 1484 1484
1497 1498 1494 1488 1495 1494 1484 1479 1482 1482 1480 1480 1476 1471 1473 1473 1472 1472 1472 1471 1471 1470 1469 1469 1469 1469 1470 1470 1470 1471 1472 1473 1474 1475 1476 1477 1478 1479 1479 1479 1479 1480 1481 1481
1496 1496 1494 1491 1494 1485 1469 1475 1475 1476 1475 1475 1473 1471 1471 1471 1471 1470 1469 1469 1468 1467 1467 1466 1466 1467 1467 1468 1468 1469 1470 1470 1471 1472 1473 1474 1475 1475 1476 1476 1477 1477 1478 1478
1493 1494 1492 1490 1481 1470 1470 1473 1475 1475 1471 1470 1471 1470 1470 1470 1469 1468 1467 1467 1466 1465 1465 1464 1464 1464 1464 1465 1465 1466 1466 1467 1468 1469 1470 1471 1471 1472 1473 1473 1474 1474 1475 1475
1493 1493 1491 1488 1480 1470 1464 1472 1473 1474 1468 1466 1467 1467 1468 1469 1467 1465 1465 1465 1464 1463 1463 1462 1461 1461 1461 1462 1462 1463 1463 1464 1465 1466 1467 1467 1468 1469 1470 1470 1471 1471 1472 1472
1488 1489 1487 1483 1476 1464 1468 1472 1473 1470 1463 1464 1464 1465 1466 1467 1466 1465 1463 1463 1462 1461 1460 1460 1459 1459 1459 1459 1460 1460 1461 1461 1462 1463 1464 1464 1465 1466 1467 1467 1467 1468 1468 1469
1477 1477 1481 1479 1475 1466 1469 1470 1468 1463 1464 1463 1463 1463 1464 1464 1463 1462 1462 1461 1460 1459 1458 1457 1457 1456 1456 1457 1457 1457 1458 1459 1460 1460 1461 1461 1462 1463 1464 1464 1464 1465 1465 1465
1474 1472 1469 1469 1466 1465 1466 1465 1464 1464 1463 1462 1462 1462 1462 1461 1461 1460 1459 1459 1458 1457 1456 1455 1455 1454 1454 1454 1455 1455 1455 1456 1456 1457 1458 1459 1459 1460 1461 1461 1461 1461 1462 1462
1472 1474 1472 1470 1464 1464 1464 1463 1462 1462 1462 1461 1461 1461 1460 1459 1459 1458 1457 1456 1455 1455 1454 1453 1452 1452 1452 1452 1452 1452 1453 1453 1454 1454 1455 1456 1457 1457 1457 1458 1458 1458 1458 1458
1465 1469 1468 1465 1463 1462 1460 1460 1460 1460 1459 1459 1459 1459 1458 1457 1457 1456 1455 1454 1453 1452 1452 1451 1451 1450 1450 1450 1450 1450 1450 1451 1451 1451 1452 1453 1454 1454 1454 1455 1455 1455 1455 1456
1463 1463 1462 1457 1457 1459 1457 1457 1457 1457 1456 1456 1456 1456 1456 1455 1455 1454 1453 1452 1451 1450 1449 1449 1448 1448 1448 1448 1448 1448 1448 1448 1449 1449 1449 1450 1451 1451 1451 1451 1452 1452 1452 1452